| time (UTC) | temp F | wind direction | speed MPH | gust MPH | rain 1hr in | rain 24hr in | rain mn in | humidity % | barometer mb |
| 20260507060521 | 61 | 0.0 | 1.0 | 0.01 | 0.70 | 0.11 | 74 | 1012.6 | |
| 20260507055521 | 61 | 0.0 | 1.0 | 0.04 | 0.70 | 0.11 | 75 | 1012.6 | |
| 20260507054521 | 61 | 0.0 | 0.0 | 0.06 | 0.70 | 0.11 | 74 | 1013.0 | |
| 20260507053521 | 61 | 0.0 | 0.0 | 0.08 | 0.70 | 0.11 | 75 | 1013.2 | |
| 20260507052521 | 61 | 0.0 | 0.0 | 0.09 | 0.70 | 0.11 | 75 | 1013.2 | |
| 20260507051546 | 61 | 0.0 | 0.0 | 0.10 | 0.70 | 0.11 | 75 | 1013.2 | |
| 20260507050521 | 61 | 0.0 | 0.0 | 0.10 | 0.69 | 0.10 | 75 | 1013.3 | |
| 20260507045521 | 61 | 0.0 | 0.0 | 0.08 | 0.66 | 0.07 | 75 | 1014.0 | |
| 20260507044521 | 61 | 0.0 | 0.0 | 0.07 | 0.64 | 0.05 | 75 | 1013.3 | |
| 20260507043521 | 61 | 0.0 | 0.0 | 0.06 | 0.62 | 0.03 | 75 | 1013.5 | |
| 20260507042521 | 61 | 0.0 | 0.0 | 0.05 | 0.61 | 0.02 | 75 | 1013.5 | |
| 20260507041521 | 61 | 0.0 | 0.0 | 0.04 | 0.60 | 0.01 | 75 | 1013.3 | |
| 20260507040521 | 61 | 0.0 | 0.0 | 0.03 | 0.59 | 0.00 | 75 | 1013.6 | |
| 20260507035521 | 61 | 0.0 | 0.0 | 0.02 | 0.58 | 0.58 | 75 | 1013.4 | |
| 20260507034521 | 61 | 0.0 | 0.0 | 0.01 | 0.57 | 0.57 | 76 | 1012.7 | |
| 20260507033521 | 61 | 0.0 | 0.0 | 0.00 | 0.56 | 0.56 | 77 | 1013.3 | |
| 20260507032521 | 61 | 0.0 | 0.0 | 0.00 | 0.56 | 0.56 | 78 | 1013.1 | |
| 20260507031521 | 61 | 0.0 | 0.0 | 0.00 | 0.56 | 0.56 | 78 | 1013.3 | |
| 20260507030521 | 61 | 0.0 | 0.0 | 0.00 | 0.56 | 0.56 | 78 | 1013.4 | |
| 20260507025521 | 61 | 0.0 | 0.0 | 0.02 | 0.56 | 0.56 | 79 | 1013.7 | |
| 20260507024521 | 61 | 0.0 | 0.0 | 0.04 | 0.56 | 0.56 | 79 | 1013.7 | |
| 20260507023521 | 61 | 0.0 | 0.0 | 0.04 | 0.56 | 0.56 | 78 | 1013.4 | |
| 20260507022521 | 61 | 0.0 | 0.0 | 0.04 | 0.56 | 0.56 | 79 | 1013.0 | |
| 20260507021546 | 62 | 0.0 | 2.0 | 0.04 | 0.56 | 0.56 | 79 | 1012.9 | |
| 20260507020521 | 62 | 135 | 1.0 | 2.0 | 0.04 | 0.56 | 0.56 | 81 | 1011.4 |
| 20260507015521 | 62 | 0.0 | 1.0 | 0.03 | 0.54 | 0.54 | 80 | 1015.3 | |
| 20260507014522 | 62 | 0.0 | 0.0 | 0.01 | 0.52 | 0.52 | 81 | 1015.5 | |
| 20260507013521 | 62 | 0.0 | 0.0 | 0.01 | 0.52 | 0.52 | 82 | 1014.5 | |
| 20260507012521 | 62 | 0.0 | 0.0 | 0.03 | 0.52 | 0.52 | 82 | 1014.6 | |
| 20260507011521 | 62 | 0.0 | 0.0 | 0.06 | 0.52 | 0.52 | 83 | 1014.1 | |
| 20260507010521 | 62 | 0.0 | 0.0 | 0.07 | 0.52 | 0.52 | 83 | 1014.3 | |
| 20260507005521 | 62 | 0.0 | 0.0 | 0.06 | 0.51 | 0.51 | 83 | 1014.5 | |
| 20260507004521 | 62 | 0.0 | 0.0 | 0.06 | 0.51 | 0.51 | 84 | 1014.0 | |
| 20260507003521 | 63 | 0.0 | 0.0 | 0.07 | 0.51 | 0.51 | 84 | 1013.8 | |
| 20260507002546 | 63 | 0.0 | 0.0 | 0.09 | 0.49 | 0.49 | 84 | 1014.1 | |
| 20260507001521 | 63 | 0.0 | 0.0 | 0.08 | 0.46 | 0.46 | 85 | 1013.7 | |
| 20260507000520 | 63 | 0.0 | 0.0 | 0.09 | 0.45 | 0.45 | 87 | 1013.5 | |
| 20260506235521 | 63 | 0.0 | 0.0 | 0.09 | 0.45 | 0.45 | 87 | 1012.9 | |
| 20260506234521 | 64 | 0.0 | 0.0 | 0.09 | 0.45 | 0.45 | 87 | 1013.5 | |
| 20260506233521 | 64 | 0.0 | 1.0 | 0.08 | 0.44 | 0.44 | 87 | 1013.4 | |
| 20260506232521 | 64 | 0.0 | 0.0 | 0.04 | 0.40 | 0.40 | 88 | 1013.9 | |
| 20260506231521 | 65 | 0.0 | 0.0 | 0.02 | 0.38 | 0.38 | 88 | 1013.9 | |
| 20260506230521 | 65 | 0.0 | 0.0 | 0.00 | 0.36 | 0.36 | 88 | 1013.7 | |
| 20260506225520 | 65 | 0.0 | 0.0 | 0.01 | 0.36 | 0.36 | 88 | 1013.8 | |
| 20260506224546 | 65 | 0.0 | 0.0 | 0.03 | 0.36 | 0.36 | 89 | 1013.4 | |
| 20260506223520 | 66 | 0.0 | 0.0 | 0.04 | 0.36 | 0.36 | 89 | 1013.6 | |
| 20260506222545 | 66 | 0.0 | 1.0 | 0.04 | 0.36 | 0.36 | 89 | 1013.2 | |
| 20260506221520 | 66 | 0.0 | 0.0 | 0.05 | 0.36 | 0.36 | 89 | 1012.9 | |
| 20260506220520 | 67 | 0.0 | 0.0 | 0.05 | 0.36 | 0.36 | 88 | 1013.3 | |
| 20260506215521 | 67 | 0.0 | 0.0 | 0.04 | 0.35 | 0.35 | 88 | 1013.1 | |
| 20260506214520 | 68 | 0.0 | 0.0 | 0.02 | 0.33 | 0.33 | 87 | 1014.0 | |
| 20260506213520 | 68 | 0.0 | 0.0 | 0.01 | 0.32 | 0.32 | 86 | 1014.5 | |
| 20260506212521 | 69 | 0.0 | 0.0 | 0.01 | 0.32 | 0.32 | 85 | 1013.8 | |
| 20260506211546 | 70 | 0.0 | 0.0 | 0.00 | 0.31 | 0.31 | 83 | 1014.0 | |
| 20260506210521 | 71 | 0.0 | 0.0 | 0.00 | 0.31 | 0.31 | 81 | 1014.1 | |
| 20260506205521 | 72 | 0.0 | 0.0 | 0.00 | 0.31 | 0.31 | 80 | 1014.5 | |
| 20260506204611 | 72 | 0.0 | 1.0 | 0.00 | 0.31 | 0.31 | 77 | 1014.5 | |
| 20260506203520 | 73 | 0.0 | 0.0 | 0.00 | 0.31 | 0.31 | 74 | 1014.4 | |
| 20260506202520 | 73 | 0.0 | 1.0 | 0.00 | 0.31 | 0.31 | 73 | 1014.3 | |
| 20260506201520 | 73 | 0.0 | 2.0 | 0.00 | 0.31 | 0.31 | 75 | 1014.3 | |
| 20260506200545 | 73 | 23 | 1.0 | 3.0 | 0.00 | 0.31 | 0.31 | 77 | 1013.8 |
| 20260506195520 | 73 | 0.0 | 1.0 | 0.00 | 0.31 | 0.31 | 78 | 1013.8 | |
| 20260506194520 | 73 | 0.0 | 1.0 | 0.00 | 0.31 | 0.31 | 76 | 1014.2 | |
| 20260506193546 | 74 | 0.0 | 1.0 | 0.00 | 0.31 | 0.31 | 76 | 1013.6 | |
| 20260506192520 | 74 | 0.0 | 0.0 | 0.00 | 0.31 | 0.31 | 76 | 1013.9 | |
| 20260506191520 | 74 | 0.0 | 1.0 | 0.00 | 0.31 | 0.31 | 75 | 1014.1 | |
| 20260506190520 | 74 | 0.0 | 1.0 | 0.00 | 0.31 | 0.31 | 75 | 1013.9 | |
| 20260506185522 | 73 | 0.0 | 1.0 | 0.00 | 0.31 | 0.31 | 78 | 1014.0 | |
| 20260506184522 | 72 | 0.0 | 0.0 | 0.00 | 0.31 | 0.31 | 79 | 1013.8 | |
| 20260506183522 | 72 | 0.0 | 1.0 | 0.00 | 0.31 | 0.31 | 80 | 1014.0 | |
| 20260506182522 | 72 | 0.0 | 1.0 | 0.00 | 0.31 | 0.31 | 82 | 1013.8 | |
| 20260506181612 | 71 | 0.0 | 1.0 | 0.00 | 0.31 | 0.31 | 85 | 1014.0 | |
| 20260506180522 | 70 | 0.0 | 0.0 | 0.00 | 0.31 | 0.31 | 89 | 1014.0 | |
| 20260506175547 | 68 | 0.0 | 0.0 | 0.00 | 0.31 | 0.31 | 88 | 1013.8 | |
| 20260506174522 | 67 | 0.0 | 0.0 | 0.00 | 0.31 | 0.31 | 80 | 1013.5 | |
| 20260506173522 | 65 | 0.0 | 0.0 | 0.00 | 0.31 | 0.31 | 79 | 1013.3 | |
| 20260506172522 | 64 | 0.0 | 1.0 | 0.00 | 0.31 | 0.31 | 76 | 1013.5 | |
| 20260506171522 | 63 | 0.0 | 1.0 | 0.01 | 0.31 | 0.31 | 77 | 1013.6 | |
| 20260506170522 | 63 | 0.0 | 0.0 | 0.02 | 0.31 | 0.31 | 80 | 1013.5 | |
| 20260506165522 | 62 | 0.0 | 0.0 | 0.04 | 0.31 | 0.31 | 82 | 1013.7 | |
| 20260506164522 | 62 | 0.0 | 0.0 | 0.05 | 0.31 | 0.31 | 83 | 1014.6 | |
| 20260506163522 | 61 | 0.0 | 0.0 | 0.08 | 0.31 | 0.31 | 85 | 1015.2 | |
| 20260506162547 | 61 | 0.0 | 0.0 | 0.13 | 0.31 | 0.31 | 86 | 1015.4 | |
| 20260506161522 | 61 | 0.0 | 0.0 | 0.26 | 0.30 | 0.30 | 87 | 1015.7 | |
| 20260506160522 | 61 | 0.0 | 0.0 | 0.27 | 0.29 | 0.29 | 88 | 1016.0 | |
| 20260506155522 | 61 | 0.0 | 0.0 | 0.26 | 0.27 | 0.27 | 88 | 1015.9 | |
| 20260506154547 | 61 | 0 | 1.0 | 2.0 | 0.26 | 0.26 | 0.26 | 89 | 1015.5 |
| 20260506153522 | 61 | 0.0 | 0.0 | 0.23 | 0.23 | 0.23 | 88 | 1015.4 | |
| 20260506152522 | 62 | 0.0 | 0.0 | 0.18 | 0.18 | 0.18 | 87 | 1016.0 | |
| 20260506151522 | 63 | 0.0 | 0.0 | 0.04 | 0.04 | 0.04 | 85 | 1015.2 | |
| 20260506150547 | 63 | 0.0 | 1.0 | 0.02 | 0.02 | 0.02 | 86 | 1015.1 | |
| 20260506145522 | 63 | 0.0 | 0.0 | 0.01 | 0.01 | 0.01 | 85 | 1014.5 | |
| 20260506144522 | 63 | 0.0 | 0.0 | 0.00 | 0.00 | 0.00 | 84 | 1014.7 | |
| 20260506143522 | 63 | 0.0 | 0.0 | 0.00 | 0.00 | 0.00 | 83 | 1014.2 | |
| 20260506142522 | 63 | 0.0 | 0.0 | 0.00 | 0.00 | 0.00 | 82 | 1014.3 | |
| 20260506141522 | 62 | 0.0 | 0.0 | 0.00 | 0.00 | 0.00 | 81 | 1014.3 | |
| 20260506140522 | 62 | 0.0 | 0.0 | 0.00 | 0.00 | 0.00 | 82 | 1014.2 | |
| 20260506135522 | 62 | 0.0 | 0.0 | 0.00 | 0.00 | 0.00 | 81 | 1013.9 | |
| 20260506134521 | 63 | 0.0 | 0.0 | 0.00 | 0.00 | 0.00 | 79 | 1013.9 | |
| 20260506133547 | 63 | 0.0 | 0.0 | 0.00 | 0.00 | 0.00 | 78 | 1013.5 | |
| 20260506132522 | 64 | 0.0 | 0.0 | 0.00 | 0.00 | 0.00 | 77 | 1014.3 | |
| 20260506131522 | 64 | 0.0 | 0.0 | 0.00 | 0.00 | 0.00 | 75 | 1014.7 | |
| 20260506130521 | 64 | 0.0 | 0.0 | 0.00 | 0.00 | 0.00 | 75 | 1014.2 | |
| 20260506125521 | 64 | 0.0 | 0.0 | 0.00 | 0.00 | 0.00 | 76 | 1014.3 | |
| 20260506124522 | 64 | 0.0 | 0.0 | 0.00 | 0.00 | 0.00 | 75 | 1014.1 | |
| 20260506123522 | 64 | 0.0 | 1.0 | 0.00 | 0.00 | 0.00 | 75 | 1013.8 | |
| 20260506122522 | 64 | 0.0 | 0.0 | 0.00 | 0.00 | 0.00 | 72 | 1014.1 | |
| 20260506121521 | 64 | 0.0 | 1.0 | 0.00 | 0.00 | 0.00 | 71 | 1013.9 | |
| 20260506120522 | 65 | 0.0 | 1.0 | 0.00 | 0.00 | 0.00 | 70 | 1013.8 | |
| 20260506115521 | 65 | 0.0 | 0.0 | 0.00 | 0.00 | 0.00 | 70 | 1014.0 | |
| 20260506114522 | 65 | 0.0 | 1.0 | 0.00 | 0.00 | 0.00 | 69 | 1014.1 | |
| 20260506113521 | 65 | 0.0 | 2.0 | 0.00 | 0.00 | 0.00 | 69 | 1013.8 | |
| 20260506112521 | 65 | 0.0 | 1.0 | 0.00 | 0.00 | 0.00 | 69 | 1013.9 | |
| 20260506111521 | 65 | 0.0 | 1.0 | 0.00 | 0.00 | 0.00 | 68 | 1014.0 | |
| 20260506110521 | 65 | 0.0 | 1.0 | 0.00 | 0.00 | 0.00 | 68 | 1014.0 | |
| 20260506105521 | 65 | 0.0 | 2.0 | 0.00 | 0.00 | 0.00 | 67 | 1013.8 | |
| 20260506104521 | 65 | 135 | 1.0 | 2.0 | 0.00 | 0.00 | 0.00 | 67 | 1013.5 |
| 20260506103521 | 65 | 135 | 1.0 | 1.0 | 0.00 | 0.00 | 0.00 | 67 | 1013.3 |
| 20260506102522 | 65 | 135 | 1.0 | 2.0 | 0.00 | 0.00 | 0.00 | 67 | 1013.3 |
| 20260506101547 | 65 | 135 | 1.0 | 2.0 | 0.00 | 0.00 | 0.00 | 68 | 1013.1 |
| 20260506100546 | 65 | 135 | 1.0 | 2.0 | 0.00 | 0.00 | 0.00 | 68 | 1013.2 |
| 20260506095521 | 65 | 135 | 1.0 | 2.0 | 0.00 | 0.00 | 0.00 | 68 | 1013.2 |
| 20260506094521 | 66 | 135 | 1.0 | 2.0 | 0.00 | 0.00 | 0.00 | 66 | 1013.1 |
| 20260506093521 | 66 | 135 | 1.0 | 3.0 | 0.00 | 0.00 | 0.00 | 66 | 1013.3 |
| 20260506092521 | 66 | 0.0 | 1.0 | 0.00 | 0.00 | 0.00 | 65 | 1013.3 | |
| 20260506091546 | 66 | 0.0 | 1.0 | 0.00 | 0.00 | 0.00 | 64 | 1013.1 | |
| 20260506090521 | 66 | 0.0 | 3.0 | 0.00 | 0.00 | 0.00 | 63 | 1013.4 | |
| 20260506085521 | 66 | 0.0 | 3.0 | 0.00 | 0.00 | 0.00 | 63 | 1013.4 | |
| 20260506084521 | 66 | 0.0 | 1.0 | 0.00 | 0.00 | 0.00 | 62 | 1013.3 | |
| 20260506083521 | 66 | 0.0 | 1.0 | 0.00 | 0.00 | 0.00 | 62 | 1013.3 | |
| 20260506082521 | 66 | 0.0 | 1.0 | 0.00 | 0.00 | 0.00 | 62 | 1013.3 | |
| 20260506081521 | 65 | 0.0 | 2.0 | 0.00 | 0.00 | 0.00 | 62 | 1013.5 | |
| 20260506080521 | 65 | 0.0 | 1.0 | 0.00 | 0.00 | 0.00 | 62 | 1013.5 | |
| 20260506073521 | 60 | 0.0 | 2.0 | 0.00 | 0.00 | 0.00 | 69 | 1013.4 | |
| 20260506072521 | 58 | 0.0 | 0.0 | 0.00 | 0.00 | 0.00 | 73 | 1013.2 | |
| 20260506071521 | 58 | 0.0 | 0.0 | 0.00 | 0.00 | 0.00 | 73 | 1013.5 | |
| 20260506070522 | 59 | 0.0 | 1.0 | 0.00 | 0.00 | 0.00 | 73 | 1013.8 | |
| 20260506061521 | 62 | 0.0 | 0.0 | 0.00 | 0.00 | 0.00 | 66 | 1015.0 |